Погода в Иматре

Финляндия     61°10′14″N   28°46′18″E
В апреле 2022 года жителям России запретили посещать сайт meteo.paraplan.net по решению Генеральной прокуратуры. Аудитория сайта уменьшилась в 10 раз. Владельцы сайта не видят смысла в поддержке погодного сервера в таких условиях. Сайт будет закрыт в октябре.
темп.,
°C
ветер,
м/с
пор.,
м/с
влажн.,
%
обл.,
%
осадки,
мм/ч
давл.,
гПа
погр.,
м
30 сентября, пт
пт3000:00+6вюв3690100 0.0 1006253
03:00+6вюв359299 0.0 1006248
06:00+6в3492100 0.2 1006210
09:00+7в3494100 0.8 1006237
12:00+8в3491100 0.1 1007298
15:00+9всв018689 0.5 1008318
18:00+9юз238480 0.3 1009306
21:00+8ююз348715 0.6 1010199
1 октября, сб
сб100:00+7ююз33889 0.1 1011155
03:00+7зюз35875 0.1 1011238
06:00+7зюз47886 0.1 1012352
09:00+7з46824 0.1 1013451
12:00+8зюз347343 0.0 1013513
15:00+10зюз246676 0.0 1013644
18:00+9ю117061 0.0 1012172
21:00+8ююв237892 0.0 1011162
2 октября, вс
вс200:00+9ю238060 0.0 1011141
03:00+7ююв238825 0.0 1011106
06:00+6юв23895 0.0 101096
09:00+6юв23846 0.0 1011132
12:00+10ююв23685 0.0 1011444
15:00+11ю12605 0.0 1010758
18:00+10ююв12719 0.0 101065
21:00+7юв358798 0.0 1011124
3 октября, пн
пн300:00+6юв3585100 0.0 1011143
03:00+6юв3583100 0.0 1011135
06:00+6вюв368768 0.0 1011169
09:00+6в4786100 0.0 1011250
12:00+9в4771100 0.0 1011566
15:00+9всв4667100 0.0 1010606
18:00+8ссв51077100 0.0 1009555
21:00+8ссв71282100 0.0 1006753
4 октября, вт
вт400:00+9ссв81480100 0.0 10041150
03:00+7ссв101890100 2.5 10001278
06:00+5ссв111696100 4.6 9981065
09:00+5ссв101592100 8.1 996883
12:00+6ссв71193100 1.1 997684
15:00+7ссв4594100 2.3 999396
18:00+6св1293100 1.0 1001187
21:00+6сз5794100 1.3 1002456